Location: Demmingen
(48.6757°N, 10.4375°E)
Time: 10:26:29
(UTC+00:00)

USA 267 - Pass Details

Date: 18 August 2024
Orbit: 1096 x 1111 km, 123.1° (Epoch: 03 September)

Event Time Altitude Azimuth Distance (km) Brightness Sun altitude
Exits shadow 20:43:20 - 198° (SSW) 3,492 5.6 -19.3°
Reaches altitude 10° 20:46:05 10° 217° (SW) 2,954 5.4 -19.6°
Maximum altitude 20:48:41 13° 241° (WSW) 2,769 5.5 -19.9°
Drops below altitude 10° 20:51:19 10° 265° (W) 2,965 6.0 -20.2°
Sets 20:55:42 0° 293° (WNW) 3,933 7.2 -20.6°
